This is the latest recevied weather packets stored in our database for station/object N5RPG. If no packets are shown the sender has not sent any weather packets the latest 10 day(s).
| Time | Temp. | Humidity | Pressure | Rain* | Wind** | Luminosity | Snow |
|---|---|---|---|---|---|---|---|
| 1777829163 | 25° C | 41% | 1022.5 hPa | 0 mm | - | 962 W/m² | - |
| 1777828860 | 25.56° C | 39% | 1022.7 hPa | 0 mm | - | 957 W/m² | - |
| 1777828556 | 25.56° C | 38% | 1022.5 hPa | 0 mm | - | 950 W/m² | - |
| 1777828254 | 25° C | 41% | 1022.7 hPa | 0 mm | - | 944 W/m² | - |
| 1777827950 | 25° C | 39% | 1022.9 hPa | 0 mm | - | 941 W/m² | - |
| 1777827647 | 25° C | 38% | 1022.9 hPa | 0 mm | - | 933 W/m² | - |
| 1777827344 | 25° C | 40% | 1023.2 hPa | 0 mm | - | 922 W/m² | - |
| 1777827041 | 24.44° C | 43% | 1022.9 hPa | 0 mm | - | 910 W/m² | - |
| 1777826738 | 24.44° C | 40% | 1022.9 hPa | 0 mm | - | 897 W/m² | - |
| 1777826434 | 25° C | 42% | 1022.9 hPa | 0 mm | - | 884 W/m² | - |
| 1777826132 | 24.44° C | 44% | 1023 hPa | 0 mm | - | 874 W/m² | - |
| 1777825829 | 24.44° C | 46% | 1022.9 hPa | 0 mm | - | 863 W/m² | - |
| 1777825526 | 24.44° C | 47% | 1023.2 hPa | 0 mm | - | 852 W/m² | - |
| 1777825224 | 23.89° C | 46% | 1023.2 hPa | 0 mm | - | 848 W/m² | - |
| 1777824920 | 23.89° C | 48% | 1023.1 hPa | 0 mm | - | 821 W/m² | - |
| 1777824616 | 23.33° C | 49% | 1023.1 hPa | 0 mm | - | 816 W/m² | - |
| 1777824314 | 23.33° C | 47% | 1023.2 hPa | 0 mm | - | 797 W/m² | - |
| 1777824009 | 23.89° C | 44% | 1023.2 hPa | 0 mm | - | 780 W/m² | - |
| 1777823706 | 23.89° C | 48% | 1023.3 hPa | 0 mm | - | 763 W/m² | - |
| 1777823403 | 23.33° C | 47% | 1023.2 hPa | 0 mm | - | 749 W/m² | - |
| 1777823101 | 23.33° C | 48% | 1023.2 hPa | 0 mm | - | 735 W/m² | - |
| 1777822798 | 23.33° C | 48% | 1023.3 hPa | 0 mm | - | 715 W/m² | - |
| 1777822495 | 23.33° C | 50% | 1023.3 hPa | 0 mm | - | 698 W/m² | - |
| 1777822193 | 23.33° C | 51% | 1023.4 hPa | 0 mm | - | 679 W/m² | - |
| 1777821890 | 22.78° C | 52% | 1023.1 hPa | 0 mm | - | 667 W/m² | - |
* Rain latest hour (hover to see other rain measurements)
** Current wind speed in m/s (hover to see current wind gust speed)